{"data":{"norad_id":60398,"epoch":"2026-05-25T03:54:10.825056Z","epoch_age_seconds":55010,"freshness":"FRESH","line1":"1 60398U 24141A   26145.16262529  .00000455  00000+0  86113-5 0  9996","line2":"2 60398  53.1599  69.2943 0000974  94.9317 265.1812 15.69708924103703","mean_motion":15.69708924,"eccentricity":9.74e-5,"inclination_deg":53.1599,"raan_deg":69.2943,"arg_perigee_deg":94.9317,"mean_anomaly_deg":265.1812,"bstar":8.6113e-6,"rev_number":10370,"period_min":91.736753100093,"perigee_km":359.07356129247,"apogee_km":360.38609775086,"semimajor_km":6737.8668295217,"source":"CELESTRAK","updated_at":"2026-05-25T13:38:19.242971Z"}}